www.pogodaiklimat.ru

Погода и климат >> Архив погоды >> Россия >> Мурманская область >> Иоканьга


ПОГОДА в Иоканьге

  • Прогноз погоды в Иоканьге
  • Монитор погоды в Иоканьге

АРХИВ ПОГОДЫ в Иоканьге

Время (UTC), дата Ветер
(напр.,м/с)
 
Видим.   Явления Облачность Т
(С)
Тd
(С)
f
(%)
Тe
(С)
Тes
(С)
Комфортность P
(гПа)
Po
(гПа)
Тmin
(С)
Tmax
(С)
R
(мм)
R24
(мм)
S
(см)
00 12.04 З 10-15
{17}
н/о н/о -0.2 -3.5 78 -8 -8 1014.2 1003.8
03 12.04 СЗ 8-13
{18}
н/о н/о -0.4 -2.0 89 -8 -8 1015.1 1004.7 -0.7
06 12.04 СЗ 9-14
{19}
н/о н/о -0.7 -7.1 62 -8 -8 1019.0 1008.5 -0.7
09 12.04 СЗ 9-13
{17}
н/о н/о -1.0 -7.5 61 -9 -9 1022.8 1012.3
12 12.04 СЗ 9-15
{15}
н/о н/о -1.1 -6.5 67 -9 -9 1025.6 1015.1
15 12.04 СЗ 4-6
{15}
н/о н/о -2.2 -5.4 79 -8 -8 1027.3 1016.7
18 12.04 СЗ 4-7
{9}
н/о н/о -2.2 -5.5 78 -8 -8 1028.1 1017.5 -0.6
21 12.04 З 6-9
{10}
н/о н/о -3.1 -5.6 83 -10 -10 1028.8 1018.1
00 13.04 З 4-6
{9}
н/о н/о -3.3 -6.4 79 -9 -9 1029.4 1018.8
03 13.04 ЮЗ 8-9
{9}
н/о н/о -5.1 -9.3 72 -14 -14 1029.6 1018.9 -5.1
06 13.04 ЮЗ 7-9
{11}
н/о н/о -3.7 -8.5 69 -11 -11 1029.2 1018.5 -5.7
09 13.04 ЮЗ 8-11
{12}
н/о н/о -1.3 -4.2 81 -9 -9 1028.6 1018.0
12 13.04 З 6-9
{11}
н/о н/о +1.3 -1.3 83 -5 -5 1028.1 1017.6
15 13.04 З 8-11
{12}
н/о н/о +1.6 -1.2 82 -5 -5 1027.2 1016.8
18 13.04 З 7-10
{12}
н/о н/о +1.6 -1.8 78 -5 -5 1026.8 1016.4 +1.8
21 13.04 ЮЗ 9-12
{12}
н/о н/о +2.1 -2.3 73 -5 -5 1025.4 1015.0
00 14.04 З 13-17
{17}
н/о н/о +1.9 -2.5 73 -6 -6 1023.5 1013.1
03 14.04 З 11-15
{17}
н/о н/о +1.9 -1.3 79 -6 -6 1022.5 1012.1 +1.3
06 14.04 З 13-19
{20}
н/о н/о +1.6 -1.0 83 -7 -7 1021.9 1011.5 +1.5
09 14.04 З 12-18
{20}
н/о н/о +1.9 -0.9 82 -6 -6 1022.0 1011.6
12 14.04 З 14-21
{22}
н/о н/о +2.3 -1.0 79 -6 -6 1021.6 1011.3
15 14.04 З 13-19
{21}
н/о н/о +2.3 -0.7 81 -6 -6 1020.9 1010.6
18 14.04 З 12-19
{22}
н/о н/о +2.5 -0.2 82 -5 -5 1020.2 1009.9 +2.6
21 14.04 З 13-20
{21}
н/о н/о +2.8 -0.4 79 -5 -5 1019.5 1009.2
00 15.04 СЗ 14-21
{25}
н/о н/о +3.4 -0.1 78 -5 -5 1018.6 1008.3
03 15.04 СЗ 11-17
{25}
н/о н/о +2.1 +0.3 88 -6 -6 1020.2 1009.9 +2.2
06 15.04 СЗ 13-20
{23}
н/о н/о +2.6 +0.1 84 -6 -6 1020.6 1010.3 +1.9
09 15.04 СЗ 13-21
{25}
н/о н/о +3.0 -0.9 76 -5 -5 1021.7 1011.4
12 15.04 СЗ 15-23
{23}
н/о н/о +3.0 -0.9 76 -5 -5 1021.7 1011.4
15 15.04 СЗ 14-20
{25}
н/о н/о +2.3 -0.3 83 -6 -6 1022.2 1011.9
18 15.04 СЗ 11-18
{23}
н/о н/о +1.6 -1.1 82 -6 -6 1024.1 1013.8 +3.2
21 15.04 СЗ 10-16
{18}
н/о н/о +0.6 -1.7 85 -7 -7 1026.6 1016.2
00 16.04 СЗ 6-8
{16}
н/о н/о +0.2 -1.9 86 -6 -6 1029.3 1018.9
03 16.04 СЗ 4-6
{9}
н/о н/о +0.4 -4.0 72 -5 -5 1031.7 1021.2 +0.2
06 16.04 С 2-3
{9}
н/о н/о +0.4 -3.4 76 -3 -3 1034.0 1023.4 +0.2
09 16.04 СЗ 2-3
{6}
н/о н/о +2.0 -5.8 56 -1 -1 1035.6 1025.1
12 16.04 З 4-6
{6}
н/о н/о +1.5 -2.7 74 -3 -3 1036.1 1025.6
15 16.04 ЮЗ 6-7
{9}
н/о н/о +1.1 -1.6 82 -5 -5 1035.1 1024.6
18 16.04 З 4-6
{7}
н/о н/о +1.4 -1.0 84 -4 -4 1034.2 1023.7 +2.3
21 16.04 З 4-6
{7}
н/о н/о +1.3 -1.5 82 -4 -4 1033.7 1023.2
00 17.04 З 5-7
{8}
н/о н/о +1.3 -1.9 79 -4 -4 1032.7 1022.2
06 17.04 З 4-6
{8}
н/о н/о +2.0 -3.4 67 -3 -3 1030.6 1020.2 +1.3
12 17.04 З 6-9
{10}
н/о н/о +2.5 -2.0 72 -3 -3 1030.1 1019.7
18 17.04 З 10-15
{15}
н/о н/о +2.4 -2.7 69 -5 -5 1027.6 1017.2 +2.9

 

Местоположение метеостанции Иоканьга (Мурманская область, Россия): широта 68.05 долгота 39.50 высота над уровнем моря 82 м.

В архиве по умолчанию представлена погода в Иоканьге за последнюю неделю. Архивные данные за месяц целиком и за предыдущие месяцы, начиная с января 2011 года, Вы можете получить, выбрав интересующий диапазон дат из раскрывающегося списка и нажав кнопку "Ввод!".


*Определитесь, кто Вы:
робот инопланетянин человек

Внимание! Время в таблицах - всемирное. Для получения местного времени необходимо прибавить поправку, которая равна 3 ч.

Смотрите также архив погоды в соседних городах и на ближайших метеорологических станциях:

Погода в Святом Носе (Мурманская область, Россия) (16 км)
Погода в Каневке (Мурманская область, Россия) (103 км)
Погода в Краснощелье (Мурманская область, Россия) (129 км)
Погода в Канином Носе (Ненецкий АО, Россия) (170 км)
Погода на Сосновец Острове (Мурманская область, Россия) (182 км)
Погода в Туманной (Мурманская область, Россия) (183 км)
Погода в Дальних Зеленцах (Мурманская область, Россия) (183 км)
Погода в Ловозере (Мурманская область, Россия) (186 км)
Погода на Моржовец Острове (Архангельская область, Россия) (195 км)
Погода в Шойне (Ненецкий АО, Россия) (196 км)

Пояснения к столбцам:

Ветер - указаны скорость ветра в м/с - средняя за 10 мин, порывы в срок и между сроками (в фигурных скобках) и направление, откуда дует ветер: С - северный, СВ - северо-восточный, В - восточный, ЮВ - юго-восточный, Ю - южный, ЮЗ - юго-западный, З - западный, СЗ - северо-западный.
Видимость - горизонтальная дальность видимости в метрах или километрах. При видимости от 1 до 10 км при отсутствии осадков обычно наблюдается дымка, при ухудшении видимости до 1 км и менее - туман. В сухую погоду видимость может ухудшаться дымом, пылью или мглою.
Явления - указаны атмосферные явления, наблюдавшиеся в срок или в последний час перед сроком; фигурными скобками обозначены явления, наблюдавшиеся между сроками (за 1-3 часа до срока); квадратными скобками обозначены град или гололедные отложения с указанием их диаметра в мм.
Облачность - указаны через наклонную черту общая и нижняя облачность в баллах и высота нижней границы облаков в метрах; квадратными скобками обозначены формы облаков: Ci - перистые, Cs - перисто-слоистые, Cc - перисто-кучевые, Ac - высококучевые, As - высокослоистые, Sc - слоисто-кучевые, Ns - слоисто-дождевые, Cu - кучевые, Cb - кучево-дождевые. Подробнее классификацию облаков см. в Атласе облаков (PDF).
T - Температура воздуха - температура, измеренная на высоте 2 м над землей.
Td - Температура точки росы - температура, при понижении до которой содержащийся в воздухе водяной пар достигнет насыщения.
f - Относительная влажность воздуха - влажноcть воздуха, измеренная на высоте 2 м над землей.
Te - Эффективная температура - температура, которую ощущает одетый по сезону человек в тени. Характеристика душности погоды. При расчете учитывается влияние влажности воздуха и скорости ветра на теплоощущения человека.
Tes - Эффективная температура на солнце - температура, которую ощущает человек, с поправкой на солнечный нагрев. Характеристика знойности погоды. Зависит от высоты солнца над горизонтом, облачности и скорости ветра. Ночью, в пасмурную погоду, а также при ветре 12 м/с и более поправка равна нулю.
P - Атмосферное давление - приведенное к уровню моря атмосферное давление.
Po - Атмосферное давление - измеренное на уровне метеостанции атмосферное давление.
Tmin - Минимальная температура - минимум температуры воздуха на высоте 2 м над землей.
Tmax - Максимальная температура - максимум температуры воздуха на высоте 2 м над землей.
R - Количество осадков - Количество выпавших осадков за период времени, мм. При наведении курсора мыши на число - период времени, за который выпало указанное количество осадков.
R24 - Количество осадков - Количество выпавших осадков за 24 часа, мм.
S - Снежный покров - Высота снежного покрова, см. При наведении курсора мыши на число - состояние снежного покрова и степень покрытия местности в баллах.